Погода в Эль-Хардже

Саудовская Аравия     24°09′37″N   47°19′55″E
темп.,
°C
ветер,
м/с
пор.,
м/с
влажн.,
%
обл.,
%
осадки,
мм/ч
давл.,
гПа
погр.,
м
15 августа, пн
пн1500:00+35юв2216100 0.0 99912
03:00+33юз2218100 0.0 99911
06:00+33зюз222069 0.0 100011
09:00+39зюз221498 0.0 1001621
12:00+42зсз3395 0.0 10003490
15:00+44сз4570 0.0 9984132
18:00+41ссв3480 0.0 99847
21:00+38всв5690 0.0 100061
16 августа, вт
вт1600:00+35юв57140 0.0 100070
03:00+32зюз22165 0.0 100011
06:00+33юз33145 0.0 100117
09:00+39с341013 0.0 1002823
12:00+43с45759 0.0 10004710
15:00+44с56690 0.0 9984956
18:00+42ссв5786 0.0 99899
21:00+37с331010 0.0 100018
17 августа, ср
ср1700:00+35сз441168 0.0 99920
03:00+33ссз461464 0.0 99975
06:00+31с46179 0.0 99976
09:00+39св781227 0.0 10001067
12:00+44св87818 0.0 9973874
15:00+44всв76716 0.0 9964281
18:00+41всв5783 0.0 99686
21:00+38всв441046 0.0 99823
18 августа, чт
чт1800:00+35всв221343 0.0 99811
03:00+34сз011476 0.0 99711
06:00+33з11165 0.0 99911
09:00+40ссз331081 0.0 999728
12:00+43с238100 0.0 9973201
15:00+44св356100 0.0 9954407
18:00+41в227100 0.0 99612
21:00+37вюв228100 0.0 99711
19 августа, пт
пт1900:00+35ссз229100 0.0 99711
03:00+34зсз231079 0.0 99711
06:00+33ссз331095 0.0 99811
09:00+41ссз45727 0.0 999674
12:00+45ссв57539 0.0 9974474
15:00+46ссв6755 0.0 9955288
18:00+42всв4476 0.0 99638
21:00+36юв34115 0.0 99817